Hourly Data Report for September 07, 2017

All times are specified in Local Standard Time (LST). Add 1 hour to adjust for Daylight Saving Time where and when it is observed.

KITCHENER/WATERLOO
ONTARIO

43°27'39.000" N
80°22'43.000" W
321.60 m
6144239
71368
YKF

Download Data

Hourly Data (September 2017)
Hourly Data Report for September 7, 2017
Temp Definition
°C
Dew Point Temp Definition
°C
Rel Hum Definition
%
Wind Dir Definition
10's deg

Wind Spd Definition
km/h
Visibility Definition
km
Stn Press Definition
kPa
Hmdx Definition


Wind Chill Definition


Weather Definition


TIME
00:00 Legend Double Dagger 9.1 8.8 98 34 5 6.4 97.40     Fog
01:00 Legend Double Dagger 8.5 8.2 98 30 8 11.3 97.38     LegendNANA
02:00 Legend Double Dagger 8.6 8.5 99   0 1.2 97.34     Rain,Fog
03:00 Legend Double Dagger 7.8 7.7 99 LegendMM 4 1.6 97.33     Rain,Fog
04:00 Legend Double Dagger 7.6 7.5 99 33 4 1.6 97.31     Fog
05:00 Legend Double Dagger 8.3 8.2 99   0 14.5 97.32     LegendNANA
06:00 Legend Double Dagger 7.5 7.4 99 9 4 16.1 97.30     Rain
07:00 Legend Double Dagger 8.4 8.3 99   0 16.1 97.31     LegendNANA
08:00 Legend Double Dagger 13.5 11.6 88 25 17 16.1 97.29     LegendNANA
09:00 Legend Double Dagger 14.9 11.2 78 27 18 16.1 97.31     LegendNANA
10:00 Legend Double Dagger 15.7 10.3 70 26 18 16.1 97.32     LegendNANA
11:00 Legend Double Dagger 15.3 11.1 76 23 21 16.1 97.33     LegendNANA
12:00 Legend Double Dagger 16.0 10.0 67 27 30 16.1 97.30     LegendNANA
13:00 Legend Double Dagger 15.9 10.5 70 28 22 16.1 97.34     LegendNANA
14:00 Legend Double Dagger 15.7 9.8 68 28 35 16.1 97.33     LegendNANA
15:00 Legend Double Dagger 13.7 9.7 77 29 28 16.1 97.38     LegendNANA
16:00 Legend Double Dagger 14.2 10.5 78 28 34 16.1 97.46     LegendNANA
17:00 Legend Double Dagger 13.0 10.6 85 27 15 16.1 97.50     LegendNANA
18:00 Legend Double Dagger 12.6 9.5 81 29 15 16.1 97.51     LegendNANA
19:00 Legend Double Dagger 11.9 9.7 86 27 13 16.1 97.52     LegendNANA
20:00 Legend Double Dagger 11.2 9.8 91 26 11 16.1 97.58     LegendNANA
21:00 Legend Double Dagger 11.0 9.8 92 25 11 16.1 97.61     LegendNANA
22:00 Legend Double Dagger 11.2 9.3 88 27 8 16.1 97.62     LegendNANA
23:00 Legend Double Dagger 11.2 9.5 89 23 11 16.1 97.66     LegendNANA

Notes on Data Quality.

Legend

  • E = Estimated
  • M = Missing
  • NA = Not Available
  • ‡ = Partner data that is not subject to review by the National Climate Archives
Date modified: